When you browse on this site, cookies collect data to enhance your experience and personalize the content and advertising you see.
Visit our Privacy Policy to learn more. By continuing to use the site, you agree to this use of cookies and data.
  • In France
  • List of Countries
  • For 7 days
  • Water Temperature
  • Satellite Maps
  • Weather Map
  • Weather Widgets
  • user-avatar
    Login

    Hourly Weather Shumovo

    Today, 27 May, Monday

    Time Temperature Precipitation Wind Pressure Humidity
    00:00 +11°C° 0 mm 3 mps 740 mmHg 92%
    01:00 +11°C° 0 mm 3 mps 740 mmHg 93%
    02:00 +10°C° 0 mm 3 mps 740 mmHg 94%
    03:00 +10°C° 0 mm 3 mps 741 mmHg 94%
    04:00 +10°C° 0 mm 3 mps 741 mmHg 93%
    05:00 +10°C° 0 mm 3 mps 742 mmHg 92%
    06:00 +12°C° 0 mm 3 mps 742 mmHg 87%
    07:00 +13°C° 0 mm 4 mps 742 mmHg 81%
    08:00 +15°C° 0 mm 4 mps 743 mmHg 75%
    09:00 +17°C° 0 mm 4 mps 743 mmHg 72%
    10:00 +18°C° 0 mm 4 mps 743 mmHg 68%
    11:00 +19°C° 0 mm 4 mps 744 mmHg 65%
    12:00 +20°C° 0 mm 5 mps 744 mmHg 64%
    13:00 +20°C° 0 mm 5 mps 744 mmHg 63%
    14:00 +21°C° 0 mm 5 mps 744 mmHg 63%
    15:00 +21°C° 0 mm 4 mps 744 mmHg 66%
    16:00 +21°C° 0 mm 4 mps 744 mmHg 68%
    17:00 +21°C° 0 mm 3 mps 744 mmHg 71%
    18:00 +20°C° 0 mm 3 mps 744 mmHg 77%
    19:00 +18°C° 0 mm 3 mps 744 mmHg 82%
    20:00 +17°C° 0 mm 3 mps 744 mmHg 88%
    21:00 +16°C° 0 mm 3 mps 745 mmHg 89%
    22:00 +16°C° 0 mm 3 mps 745 mmHg 91%
    23:00 +14°C° 0 mm 3 mps 745 mmHg 93%

    Tomorrow, 28 May, Tuesday

    Time Temperature Precipitation Wind Pressure Humidity
    00:00 +14°C° 0 mm 3 mps 745 mmHg 94%
    01:00 +14°C° 0 mm 3 mps 745 mmHg 94%
    02:00 +14°C° 0 mm 3 mps 745 mmHg 95%
    03:00 +14°C° 0 mm 3 mps 746 mmHg 94%
    04:00 +14°C° 0 mm 3 mps 746 mmHg 94%
    05:00 +16°C° 0 mm 3 mps 746 mmHg 93%
    06:00 +18°C° 0 mm 3 mps 746 mmHg 89%
    07:00 +19°C° 0 mm 3 mps 746 mmHg 86%
    08:00 +21°C° 0 mm 4 mps 746 mmHg 82%
    09:00 +22°C° 0.1 mm 4 mps 747 mmHg 77%
    10:00 +25°C° 0.1 mm 4 mps 747 mmHg 73%
    11:00 +26°C° 0.1 mm 5 mps 747 mmHg 68%
    12:00 +26°C° 0.1 mm 5 mps 747 mmHg 67%
    13:00 +26°C° 0.1 mm 5 mps 747 mmHg 67%
    14:00 +27°C° 0.1 mm 5 mps 747 mmHg 66%
    15:00 +26°C° 0 mm 5 mps 747 mmHg 69%
    16:00 +26°C° 0 mm 4 mps 746 mmHg 71%
    17:00 +26°C° 0 mm 3 mps 746 mmHg 73%
    18:00 +24°C° 0 mm 3 mps 746 mmHg 78%
    19:00 +22°C° 0 mm 3 mps 746 mmHg 83%
    20:00 +20°C° 0 mm 3 mps 746 mmHg 87%
    21:00 +19°C° 0 mm 3 mps 747 mmHg 89%
    22:00 +19°C° 0 mm 3 mps 747 mmHg 90%
    23:00 +18°C° 0 mm 3 mps 747 mmHg 92%

    Day after tomorrow, 29 May, Wednesday

    Time Temperature Precipitation Wind Pressure Humidity
    00:00 +18°C° 0 mm 3 mps 747 mmHg 92%
    01:00 +17°C° 0 mm 3 mps 747 mmHg 92%
    02:00 +17°C° 0 mm 3 mps 747 mmHg 93%
    03:00 +18°C° 0 mm 3 mps 747 mmHg 92%
    04:00 +18°C° 0 mm 3 mps 747 mmHg 91%
    05:00 +18°C° 0 mm 3 mps 748 mmHg 89%
    06:00 +20°C° 0 mm 4 mps 748 mmHg 84%
    07:00 +21°C° 0 mm 4 mps 748 mmHg 79%
    08:00 +23°C° 0 mm 5 mps 748 mmHg 74%
    09:00 +25°C° 0 mm 5 mps 748 mmHg 70%
    10:00 +26°C° 0 mm 5 mps 748 mmHg 66%
    11:00 +27°C° 0 mm 6 mps 748 mmHg 62%
    12:00 +27°C° 0 mm 6 mps 748 mmHg 62%
    13:00 +27°C° 0 mm 6 mps 748 mmHg 62%
    14:00 +28°C° 0 mm 6 mps 748 mmHg 62%
    15:00 +27°C° 0.2 mm 5 mps 748 mmHg 66%
    16:00 +27°C° 0.2 mm 4 mps 747 mmHg 70%
    17:00 +26°C° 0.2 mm 3 mps 747 mmHg 74%
    18:00 +25°C° 0.1 mm 3 mps 747 mmHg 79%
    19:00 +22°C° 0.1 mm 3 mps 747 mmHg 84%
    20:00 +21°C° 0.1 mm 3 mps 747 mmHg 88%
    21:00 +20°C° 0 mm 3 mps 748 mmHg 90%
    22:00 +19°C° 0 mm 3 mps 748 mmHg 91%
    23:00 +19°C° 0 mm 3 mps 748 mmHg 93%

    30 May, Thursday

    Time Temperature Precipitation Wind Pressure Humidity
    00:00 +19°C° 0 mm 3 mps 748 mmHg 93%
    01:00 +18°C° 0 mm 3 mps 748 mmHg 93%
    02:00 +18°C° 0 mm 3 mps 748 mmHg 93%
    03:00 +18°C° 0.1 mm 3 mps 748 mmHg 93%
    04:00 +18°C° 0.1 mm 3 mps 748 mmHg 92%
    05:00 +19°C° 0.1 mm 4 mps 748 mmHg 91%
    06:00 +20°C° 0.1 mm 4 mps 748 mmHg 86%
    07:00 +22°C° 0.1 mm 4 mps 748 mmHg 82%
    08:00 +23°C° 0.1 mm 5 mps 748 mmHg 78%
    09:00 +25°C° 0.1 mm 5 mps 748 mmHg 73%
    10:00 +26°C° 0.1 mm 6 mps 748 mmHg 69%
    11:00 +27°C° 0.1 mm 6 mps 748 mmHg 65%
    12:00 +27°C° 0.1 mm 6 mps 748 mmHg 64%
    13:00 +28°C° 0.1 mm 6 mps 748 mmHg 64%
    14:00 +28°C° 0.1 mm 6 mps 747 mmHg 63%
    15:00 +27°C° 0 mm 5 mps 747 mmHg 66%
    16:00 +27°C° 0 mm 5 mps 747 mmHg 70%
    17:00 +27°C° 0 mm 4 mps 747 mmHg 73%
    18:00 +25°C° 0 mm 4 mps 747 mmHg 77%
    19:00 +24°C° 0 mm 3 mps 747 mmHg 81%
    20:00 +21°C° 0 mm 3 mps 747 mmHg 86%
    21:00 +21°C° 0 mm 3 mps 747 mmHg 87%
    22:00 +20°C° 0 mm 3 mps 747 mmHg 89%
    23:00 +20°C° 0 mm 3 mps 747 mmHg 90%

    31 May, Friday

    Time Temperature Precipitation Wind Pressure Humidity
    00:00 +19°C° 0.1 mm 3 mps 747 mmHg 90%
    01:00 +19°C° 0.1 mm 3 mps 747 mmHg 90%
    02:00 +19°C° 0.1 mm 3 mps 747 mmHg 90%
    03:00 +19°C° 0 mm 3 mps 747 mmHg 90%
    04:00 +19°C° 0 mm 3 mps 747 mmHg 89%
    05:00 +19°C° 0 mm 3 mps 747 mmHg 88%
    06:00 +21°C° 0 mm 3 mps 747 mmHg 84%
    07:00 +22°C° 0 mm 3 mps 747 mmHg 80%
    08:00 +25°C° 0 mm 4 mps 747 mmHg 75%
    09:00 +26°C° 0.1 mm 4 mps 747 mmHg 71%
    10:00 +27°C° 0.1 mm 4 mps 747 mmHg 67%
    11:00 +28°C° 0.1 mm 4 mps 747 mmHg 62%
    12:00 +29°C° 0.2 mm 4 mps 747 mmHg 62%
    13:00 +29°C° 0.2 mm 4 mps 746 mmHg 61%
    14:00 +29°C° 0.2 mm 3 mps 746 mmHg 60%
    15:00 +29°C° 0.1 mm 3 mps 746 mmHg 63%
    16:00 +29°C° 0.1 mm 2 mps 746 mmHg 65%
    17:00 +28°C° 0.1 mm 2 mps 746 mmHg 68%
    18:00 +27°C° 0.1 mm 1 mps 746 mmHg 72%
    19:00 +25°C° 0.1 mm 1 mps 746 mmHg 76%
    20:00 +23°C° 0.1 mm 1 mps 746 mmHg 81%
    21:00 +22°C° 0.1 mm 1 mps 746 mmHg 82%
    22:00 +22°C° 0.1 mm 1 mps 746 mmHg 83%
    23:00 +20°C° 0.1 mm 2 mps 746 mmHg 85%

    1 June, Saturday

    Time Temperature Precipitation Wind Pressure Humidity
    00:00 +20°C° 0.3 mm 2 mps 745 mmHg 87%
    01:00 +19°C° 0.3 mm 2 mps 745 mmHg 89%
    02:00 +19°C° 0.3 mm 2 mps 745 mmHg 91%
    03:00 +19°C° 0.1 mm 2 mps 745 mmHg 91%
    04:00 +19°C° 0.1 mm 2 mps 745 mmHg 91%
    05:00 +20°C° 0.1 mm 2 mps 745 mmHg 91%
    06:00 +21°C° 0 mm 3 mps 745 mmHg 86%
    07:00 +24°C° 0 mm 3 mps 745 mmHg 81%
    08:00 +25°C° 0 mm 3 mps 745 mmHg 76%
    09:00 +26°C° 0 mm 4 mps 745 mmHg 71%
    10:00 +27°C° 0 mm 4 mps 745 mmHg 65%
    11:00 +28°C° 0 mm 4 mps 745 mmHg 60%
    12:00 +28°C° 0.5 mm 4 mps 744 mmHg 60%
    13:00 +28°C° 0.5 mm 4 mps 744 mmHg 61%
    14:00 +28°C° 0.5 mm 4 mps 744 mmHg 62%
    15:00 +28°C° 0.2 mm 3 mps 744 mmHg 65%
    16:00 +28°C° 0.2 mm 2 mps 744 mmHg 68%
    17:00 +27°C° 0.2 mm 1 mps 744 mmHg 71%
    18:00 +26°C° 0.2 mm 1 mps 744 mmHg 73%
    19:00 +24°C° 0.2 mm 2 mps 744 mmHg 76%
    20:00 +23°C° 0.2 mm 2 mps 744 mmHg 78%
    21:00 +21°C° 1.4 mm 2 mps 744 mmHg 81%
    22:00 +20°C° 1.4 mm 2 mps 744 mmHg 85%
    23:00 +20°C° 1.4 mm 2 mps 743 mmHg 88%
    Show more